This is the latest recevied weather packets stored in our database for station/object KC5DP. If no packets are shown the sender has not sent any weather packets the latest 10 day(s).
| Time | Temp. | Humidity | Pressure | Rain* | Wind** | Luminosity | Snow |
|---|---|---|---|---|---|---|---|
| 1777784779 | 11.67° C | 86% | 1019.1 hPa | 0 mm | - | 0 W/m² | - |
| 1777784476 | 11.67° C | 87% | 1019 hPa | 0 mm | - | 0 W/m² | - |
| 1777784174 | 11.67° C | 87% | 1019 hPa | 0 mm | - | 0 W/m² | - |
| 1777783870 | 12.22° C | 87% | 1019 hPa | 0 mm | - | 0 W/m² | - |
| 1777783567 | 11.67° C | 84% | 1019 hPa | 0 mm | - | 0 W/m² | - |
| 1777783265 | 12.22° C | 83% | 1019 hPa | 0 mm | - | 0 W/m² | - |
| 1777782960 | 11.67° C | 83% | 1019.2 hPa | 0 mm | - | 0 W/m² | - |
| 1777782658 | 11.67° C | 86% | 1019 hPa | 0 mm | - | 0 W/m² | - |
| 1777782355 | 12.22° C | 85% | 1019 hPa | 0 mm | - | 0 W/m² | - |
| 1777782051 | 12.22° C | 83% | 1018.9 hPa | 0 mm | - | 0 W/m² | - |
| 1777781747 | 12.22° C | 81% | 1018.9 hPa | 0 mm | - | 0 W/m² | - |
| 1777781445 | 12.22° C | 85% | 1018.9 hPa | 0 mm | - | 0 W/m² | - |
| 1777781142 | 12.22° C | 83% | 1018.9 hPa | 0 mm | - | 0 W/m² | - |
| 1777780840 | 12.78° C | 83% | 1018.8 hPa | 0 mm | - | 0 W/m² | - |
| 1777780536 | 12.78° C | 81% | 1018.9 hPa | 0 mm | - | 0 W/m² | - |
| 1777780234 | 12.78° C | 80% | 1018.9 hPa | 0 mm | - | 0 W/m² | - |
| 1777779931 | 12.78° C | 76% | 1018.8 hPa | 0 mm | - | 0 W/m² | - |
| 1777779628 | 13.33° C | 74% | 1018.8 hPa | 0 mm | - | 0 W/m² | - |
| 1777779325 | 13.33° C | 73% | 1018.6 hPa | 0 mm | - | 0 W/m² | - |
| 1777779023 | 13.89° C | 76% | 1018.8 hPa | 0 mm | - | 0 W/m² | - |
| 1777778721 | 13.89° C | 75% | 1018.7 hPa | 0 mm | - | 0 W/m² | - |
| 1777778419 | 13.89° C | 72% | 1018.6 hPa | 0 mm | - | 0 W/m² | - |
| 1777778117 | 14.44° C | 70% | 1018.6 hPa | 0 mm | - | 0 W/m² | - |
| 1777777814 | 14.44° C | 69% | 1018.6 hPa | 0 mm | - | 0 W/m² | - |
| 1777777509 | 15° C | 69% | 1018.7 hPa | 0 mm | - | 0 W/m² | - |
* Rain latest hour (hover to see other rain measurements)
** Current wind speed in m/s (hover to see current wind gust speed)